Radiosonde details



Informationen :

Serial : X5211317
Type : Vaisala RS41-NG
Date of production : 22.12.2025
Frequency : 404.800MHz
Launchsite : Boise Air Terminal
Nearest town : Idaho City, US (14.6km)

Altitude (Max) : 31530m at 2026-09-01 00:43:13
Speed (Max) : 74km/h at altitude 14095m

Average speed : 29km/h
Average ascent rate : 5m/s
Average descent rate : -13m/s
Ascent rate (Max) : 8.3m/s
Descent rate (Max): -45.4m/s

First frame :
KE7DJD at 2026-08-31 23:05:25 at altitude 1844m (OG: 1802m)
Last frame :
KE7DJD at 2026-09-01 01:20:20 at altitude 3122m (OG: 3080m)

Flighttime : 2h14m55s
Ascent time : 1h37m48s
Descent time : 37m7s
Uptime : -
Killtimer : 7h53m

Distance (Straight line distance): 50km

Distance (Route):


Frames : 387


Measurement :

Temperature : 9.8°C
Humidity : 26.3%
Pressure : 0hPa


Vertical profile (SkewT) :


Elevation profile :



Receiving stations :


Receiver Frames First received Last received
KE7DJD 387 2026-08-31 23:05:25 2026-09-01 01:20:20

Share per receiver :



All frames :


Receiver Date Latitude Longitude Direction Speed Altitude Climb Temperature Humidity Pressure Voltage Killtimer Uptime BKT XDATA
KE7DJD2026-09-01 01:20:2043.95127-115.9002747°5km/h3122m-6.9m/s9.8°C26.3%0hPa0V07:53:0000:00:0000:00:00
KE7DJD2026-09-01 01:20:0043.95099-115.9009955°20km/h3237m-4.9m/s9.2°C25.8%0hPa0V07:54:0000:00:0000:00:00
KE7DJD2026-09-01 01:19:3943.95058-115.9023370°22km/h3350m-5.8m/s8.5°C31.6%0hPa0V07:54:0000:00:0000:00:00
KE7DJD2026-09-01 01:19:1943.95020-115.9038774°26km/h3467m-6.0m/s7.4°C32.9%0hPa0V07:55:0000:00:0000:00:00
KE7DJD2026-09-01 01:18:5843.94981-115.9056874°26km/h3595m-6.1m/s6.2°C35.7%0hPa0V07:55:0000:00:0000:00:00
KE7DJD2026-09-01 01:18:3743.94937-115.9075772°27km/h3721m-5.9m/s5.0°C39.3%0hPa0V07:56:0000:00:0000:00:00
KE7DJD2026-09-01 01:18:1643.94890-115.9096174°29km/h3847m-6.1m/s4.1°C40.9%0hPa0V07:56:0000:00:0000:00:00
KE7DJD2026-09-01 01:17:3443.94787-115.9141372°38km/h4101m-6.4m/s1.9°C54.3%0hPa0V07:56:0000:00:0000:00:00
KE7DJD2026-09-01 01:17:1443.94720-115.9165667°37km/h4224m-6.3m/s1.0°C49.5%0hPa0V07:56:0000:00:0000:00:00
KE7DJD2026-09-01 01:16:5343.94630-115.9188558°35km/h4356m-7.5m/s-0.1°C39.9%0hPa0V07:57:0000:00:0000:00:00
KE7DJD2026-09-01 01:16:3443.94525-115.9208453°37km/h4487m-6.5m/s-1.1°C35.0%0hPa0V07:57:0000:00:0000:00:00
KE7DJD2026-09-01 01:16:1243.94393-115.9228946°38km/h4624m-6.3m/s-2.0°C29.6%0hPa0V07:57:0000:00:0000:00:00
KE7DJD2026-09-01 01:15:5243.94245-115.9246736°38km/h4755m-6.5m/s-3.0°C28.5%0hPa0V07:58:0000:00:0000:00:00
KE7DJD2026-09-01 01:15:3243.94074-115.9262333°37km/h4888m-6.4m/s-4.2°C29.8%0hPa0V07:58:0000:00:0000:00:00
KE7DJD2026-09-01 01:15:1043.93913-115.9276936°33km/h5023m-6.5m/s-4.9°C23.3%0hPa0V07:59:0000:00:0000:00:00
KE7DJD2026-09-01 01:14:4943.93783-115.9288131°27km/h5159m-6.8m/s-5.7°C21.7%0hPa0V07:59:0000:00:0000:00:00
KE7DJD2026-09-01 01:14:2843.93662-115.9294312°24km/h5296m-6.5m/s-6.5°C23.7%0hPa0V07:59:0000:00:0000:00:00
KE7DJD2026-09-01 01:14:0843.93536-115.9295626km/h5425m-6.5m/s-7.5°C25.8%0hPa0V08:00:0000:00:0000:00:00
KE7DJD2026-09-01 01:13:4743.93407-115.92956359°24km/h5563m-6.9m/s-8.9°C29.9%0hPa0V08:00:0000:00:0000:00:00
KE7DJD2026-09-01 01:13:2643.93275-115.9295926km/h5708m-6.9m/s-10.2°C28.7%0hPa0V08:01:0000:00:0000:00:00
KE7DJD2026-09-01 01:13:0543.93147-115.9300525°24km/h5853m-7.2m/s-11.1°C19.7%0hPa0V08:01:0000:00:0000:00:00
KE7DJD2026-09-01 01:12:4543.93049-115.9309141°24km/h5991m-7.0m/s-12.0°C17.6%0hPa0V08:01:0000:00:0000:00:00
KE7DJD2026-09-01 01:12:2643.92970-115.9321552°24km/h6129m-6.6m/s-12.9°C29.0%0hPa0V08:02:0000:00:0000:00:00
KE7DJD2026-09-01 01:12:0443.92882-115.9336351°27km/h6272m-6.8m/s-14.1°C45.3%0hPa0V08:02:0000:00:0000:00:00
KE7DJD2026-09-01 01:11:4343.92782-115.9351745°31km/h6415m-6.7m/s-15.3°C57.0%0hPa0V08:02:0000:00:0000:00:00
KE7DJD2026-09-01 01:11:2443.92654-115.9365238°35km/h6552m-6.5m/s-16.5°C62.7%0hPa0V08:02:0000:00:0000:00:00
KE7DJD2026-09-01 01:11:0243.92519-115.9381646°35km/h6696m-6.8m/s-17.7°C65.1%0hPa0V08:02:0000:00:0000:00:00
KE7DJD2026-09-01 01:10:4143.92402-115.9400953°35km/h6843m-7.5m/s-18.8°C64.0%0hPa0V08:03:0000:00:0000:00:00
KE7DJD2026-09-01 01:10:2143.92288-115.9420146°35km/h6991m-6.9m/s-19.7°C69.1%0hPa0V08:03:0000:00:0000:00:00
KE7DJD2026-09-01 01:09:5943.92135-115.9433629°37km/h7141m-7.4m/s-19.4°C24.8%0hPa0V08:04:0000:00:0000:00:00
KE7DJD2026-09-01 01:09:4043.91973-115.9446635°38km/h7287m-7.3m/s-20.5°C13.4%0hPa0V08:04:0000:00:0000:00:00
KE7DJD2026-09-01 01:09:1843.91812-115.9461531°35km/h7441m-6.9m/s-21.7°C13.7%0hPa0V08:04:0000:00:0000:00:00
KE7DJD2026-09-01 01:08:5743.91657-115.9473627°31km/h7597m-7.9m/s-22.6°C12.0%0hPa0V08:05:0000:00:0000:00:00
KE7DJD2026-09-01 01:08:3743.91515-115.9481828°29km/h7747m-7.8m/s-23.6°C16.1%0hPa0V08:05:0000:00:0000:00:00
KE7DJD2026-09-01 01:08:1743.91386-115.9491030°26km/h7907m-7.9m/s-25.0°C20.1%0hPa0V08:06:0000:00:0000:00:00
KE7DJD2026-09-01 01:07:5543.91271-115.9499222°24km/h8066m-7.3m/s-26.5°C26.4%0hPa0V08:06:0000:00:0000:00:00
KE7DJD2026-09-01 01:07:3643.91161-115.9503211°22km/h8215m-7.3m/s-27.6°C31.4%0hPa0V08:06:0000:00:0000:00:00
KE7DJD2026-09-01 01:07:1543.91035-115.95023352°24km/h8377m-7.7m/s-29.0°C34.6%0hPa0V08:07:0000:00:0000:00:00
KE7DJD2026-09-01 01:06:5443.90910-115.94972340°26km/h8540m-8.0m/s-30.5°C39.0%0hPa0V08:07:0000:00:0000:00:00
KE7DJD2026-09-01 01:06:3343.90777-115.94897339°31km/h8698m-8.2m/s-31.8°C36.8%0hPa0V08:07:0000:00:0000:00:00
KE7DJD2026-09-01 01:06:1343.90627-115.94827345°31km/h8867m-7.9m/s-33.1°C30.7%0hPa0V08:07:0000:00:0000:00:00
KE7DJD2026-09-01 01:05:5243.90485-115.94771345°29km/h9025m-8.0m/s-34.5°C34.8%0hPa0V08:08:0000:00:0000:00:00
KE7DJD2026-09-01 01:05:3143.90347-115.94732355°24km/h9194m-8.1m/s-36.2°C36.8%0hPa0V08:08:0000:00:0000:00:00
KE7DJD2026-09-01 01:05:1143.90235-115.94725359°22km/h9355m-8.1m/s-37.5°C33.5%0hPa0V08:08:0000:00:0000:00:00
KE7DJD2026-09-01 01:04:5143.90138-115.94730360°16km/h9516m-8.1m/s-38.9°C29.5%0hPa0V08:09:0000:00:0000:00:00
KE7DJD2026-09-01 01:04:3043.90047-115.94701335°20km/h9684m-8.1m/s-39.8°C26.5%0hPa0V08:09:0000:00:0000:00:00
KE7DJD2026-09-01 01:04:1043.89952-115.94625327°20km/h9849m-9.0m/s-41.2°C43.5%0hPa0V08:10:0000:00:0000:00:00
KE7DJD2026-09-01 01:03:4943.89866-115.94536323°20km/h10023m-8.4m/s-42.3°C18.8%0hPa0V08:10:0000:00:0000:00:00
KE7DJD2026-09-01 01:03:2843.89772-115.94423314°27km/h10199m-7.9m/s-43.8°C26.5%0hPa0V08:10:0000:00:0000:00:00
KE7DJD2026-09-01 01:03:0743.89677-115.94294318°24km/h10374m-8.5m/s-45.5°C32.1%0hPa0V08:11:0000:00:0000:00:00
KE7DJD2026-09-01 01:02:4643.89577-115.94154315°31km/h10548m-8.4m/s-47.1°C35.6%0hPa0V08:11:0000:00:0000:00:00
KE7DJD2026-09-01 01:02:2643.89466-115.94023323°26km/h10717m-8.0m/s-48.2°C18.4%0hPa0V08:12:0000:00:0000:00:00
KE7DJD2026-09-01 01:02:0543.89362-115.93929328°22km/h10899m-8.5m/s-49.5°C19.3%0hPa0V08:12:0000:00:0000:00:00
KE7DJD2026-09-01 01:01:4443.89223-115.93858346°33km/h11083m-8.9m/s-50.6°C21.7%0hPa0V08:12:0000:00:0000:00:00
KE7DJD2026-09-01 01:01:2343.89060-115.93787343°31km/h11268m-9.0m/s-51.9°C22.7%0hPa0V08:13:0000:00:0000:00:00
KE7DJD2026-09-01 01:01:0343.88907-115.93743355°33km/h11449m-9.2m/s-52.6°C22.6%0hPa0V08:13:0000:00:0000:00:00
KE7DJD2026-09-01 01:00:4243.88718-115.93699349°38km/h11642m-9.5m/s-53.9°C23.8%0hPa0V08:13:0000:00:0000:00:00
KE7DJD2026-09-01 01:00:2243.88535-115.93620341°38km/h11831m-9.8m/s-55.0°C22.8%0hPa0V08:13:0000:00:0000:00:00
KE7DJD2026-09-01 01:00:0143.88328-115.93588360°40km/h12032m-9.8m/s-55.8°C20.5%0hPa0V08:13:0000:00:0000:00:00
KE7DJD2026-09-01 00:59:4043.88113-115.93568357°37km/h12234m-10.0m/s-56.2°C17.0%0hPa0V08:14:0000:00:0000:00:00
KE7DJD2026-09-01 00:59:1943.87931-115.9357037km/h12449m-9.9m/s-57.5°C13.5%0hPa0V08:14:0000:00:0000:00:00
KE7DJD2026-09-01 00:58:5843.87704-115.9362510°57km/h12649m-10.0m/s-56.8°C9.5%0hPa0V08:15:0000:00:0000:00:00
KE7DJD2026-09-01 00:58:3743.87435-115.9369113°53km/h12863m-10.4m/s-57.9°C7.7%0hPa0V08:15:0000:00:0000:00:00
KE7DJD2026-09-01 00:58:1743.87206-115.9379031°40km/h13068m-10.4m/s-56.7°C5.8%0hPa0V08:15:0000:00:0000:00:00
KE7DJD2026-09-01 00:57:5743.87010-115.9394128°47km/h13276m-10.4m/s-57.0°C5.3%0hPa0V08:16:0000:00:0000:00:00
KE7DJD2026-09-01 00:57:3743.86796-115.9409335°51km/h13493m-12.3m/s-57.1°C4.5%0hPa0V08:16:0000:00:0000:00:00
KE7DJD2026-09-01 00:57:1743.86577-115.9427528°51km/h13749m-12.0m/s-57.3°C3.9%0hPa0V08:17:0000:00:0000:00:00
KE7DJD2026-09-01 00:56:5643.86338-115.9454352°62km/h13977m-10.9m/s-57.7°C3.7%0hPa0V08:17:0000:00:0000:00:00
KE7DJD2026-09-01 00:56:3543.86135-115.9487145°57km/h14208m-11.4m/s-57.0°C2.8%0hPa0V08:17:0000:00:0000:00:00
KE7DJD2026-09-01 00:56:1443.85955-115.9516252°46km/h14445m-11.4m/s-57.4°C2.4%0hPa0V08:18:0000:00:0000:00:00
KE7DJD2026-09-01 00:55:5243.85789-115.9539540°44km/h14696m-11.7m/s-57.8°C2.3%0hPa0V08:18:0000:00:0000:00:00
KE7DJD2026-09-01 00:55:3243.85609-115.9562348°58km/h14984m-14.6m/s-57.1°C2.0%0hPa0V08:19:0000:00:0000:00:00
KE7DJD2026-09-01 00:55:1143.85414-115.9591945°55km/h15276m-14.2m/s-56.9°C1.9%0hPa0V08:19:0000:00:0000:00:00
KE7DJD2026-09-01 00:54:5143.85226-115.9620154°53km/h15614m-18.7m/s-57.0°C1.8%0hPa0V08:19:0000:00:0000:00:00
KE7DJD2026-09-01 00:54:3143.85079-115.9650658°55km/h15933m-17.1m/s-57.8°C1.9%0hPa0V08:19:0000:00:0000:00:00
KE7DJD2026-09-01 00:54:1243.84940-115.9677549°47km/h16245m-15.5m/s-57.0°C1.7%0hPa0V08:19:0000:00:0000:00:00
KE7DJD2026-09-01 00:53:5043.84750-115.9703053°53km/h16614m-19.5m/s-57.7°C1.6%0hPa0V08:20:0000:00:0000:00:00
KE7DJD2026-09-01 00:53:2943.84615-115.9734662°44km/h17025m-19.8m/s-57.4°C1.6%0hPa0V08:20:0000:00:0000:00:00
KE7DJD2026-09-01 00:53:0943.84522-115.9756553°35km/h17359m-16.8m/s-54.8°C1.3%0hPa0V08:20:0000:00:0000:00:00
KE7DJD2026-09-01 00:52:4943.84346-115.9782062°58km/h17732m-17.8m/s-54.8°C1.3%0hPa0V08:21:0000:00:0000:00:00
KE7DJD2026-09-01 00:52:2843.84270-115.9807657°24km/h18094m-16.2m/s-54.1°C1.2%0hPa0V08:21:0000:00:0000:00:00
KE7DJD2026-09-01 00:52:0843.84172-115.9816455°35km/h18460m-17.2m/s-55.3°C1.3%0hPa0V08:22:0000:00:0000:00:00
KE7DJD2026-09-01 00:51:4743.84123-115.9831588°16km/h18836m-16.9m/s-54.2°C1.2%0hPa0V08:22:0000:00:0000:00:00
KE7DJD2026-09-01 00:51:2743.84111-115.9839727°18km/h19230m-20.7m/s-55.3°C1.3%0hPa0V08:22:0000:00:0000:00:00
KE7DJD2026-09-01 00:51:0643.83990-115.9850931°26km/h19632m-19.4m/s-55.3°C1.3%0hPa0V08:23:0000:00:0000:00:00
KE7DJD2026-09-01 00:50:4643.83918-115.98501336°22km/h20021m-18.1m/s-55.9°C1.3%0hPa0V08:23:0000:00:0000:00:00
KE7DJD2026-09-01 00:50:2643.83737-115.9845042km/h20453m-22.0m/s-57.8°C1.5%0hPa0V08:24:0000:00:0000:00:00
KE7DJD2026-09-01 00:50:0443.83632-115.9856656°20km/h20932m-20.3m/s-56.1°C1.3%0hPa0V08:24:0000:00:0000:00:00
KE7DJD2026-09-01 00:49:4343.83564-115.9869181°24km/h21383m-19.8m/s-55.1°C1.2%0hPa0V08:24:0000:00:0000:00:00
KE7DJD2026-09-01 00:49:2243.83562-115.9879936°9km/h21822m-21.9m/s-52.0°C1.0%0hPa0V08:24:0000:00:0000:00:00
KE7DJD2026-09-01 00:49:0243.83496-115.98908106°7km/h22278m-24.6m/s-50.5°C0.9%0hPa0V08:24:0000:00:0000:00:00
KE7DJD2026-09-01 00:48:4243.83479-115.98830313°27km/h22802m-27.1m/s-49.7°C0.8%0hPa0V08:25:0000:00:0000:00:00
KE7DJD2026-09-01 00:48:2143.83369-115.9878410°16km/h23275m-22.6m/s-51.2°C0.9%0hPa0V08:25:0000:00:0000:00:00
KE7DJD2026-09-01 00:48:0243.83319-115.987749km/h23750m-25.2m/s-51.5°C0.9%0hPa0V08:26:0000:00:0000:00:00
KE7DJD2026-09-01 00:47:4143.83247-115.9879340°15km/h24278m-26.9m/s-51.3°C0.9%0hPa0V08:26:0000:00:0000:00:00
KE7DJD2026-09-01 00:47:2043.83231-115.9888844°4km/h24912m-30.2m/s-51.2°C0.9%0hPa0V08:26:0000:00:0000:00:00
KE7DJD2026-09-01 00:47:0043.83278-115.98942205°11km/h25493m-32.1m/s-51.4°C0.9%0hPa0V08:27:0000:00:0000:00:00
KE7DJD2026-09-01 00:46:3943.83330-115.98988226°7km/h26131m-27.0m/s-51.1°C1.0%0hPa0V08:27:0000:00:0000:00:00
KE7DJD2026-09-01 00:46:1943.83312-115.9900431°15km/h26680m-27.8m/s-49.2°C0.9%0hPa0V08:28:0000:00:0000:00:00
KE7DJD2026-09-01 00:45:5843.83248-115.99022356°9km/h27298m-25.4m/s-46.8°C0.8%0hPa0V08:28:0000:00:0000:00:00
KE7DJD2026-09-01 00:45:3743.83261-115.98943273°20km/h27894m-30.4m/s-44.4°C0.6%0hPa0V08:28:0000:00:0000:00:00
KE7DJD2026-09-01 00:45:1843.83246-115.989050km/h28527m-36.2m/s-45.5°C0.7%0hPa0V08:29:0000:00:0000:00:00
KE7DJD2026-09-01 00:44:5643.83215-115.99007106°40km/h29133m-28.2m/s-44.2°C0.6%0hPa0V08:29:0000:00:0000:00:00
KE7DJD2026-09-01 00:44:3643.83251-115.99021110°5km/h29536m-11.6m/s-42.3°C0.5%0hPa0V00:00:0000:00:0000:00:00
KE7DJD2026-09-01 00:44:1543.83324-115.9895672°26km/h29943m-23.0m/s-42.6°C0.5%0hPa0V00:00:0000:00:0000:00:00
KE7DJD2026-09-01 00:43:5443.83372-115.99077242°27km/h30507m-26.3m/s-43.5°C0.6%0hPa0V00:00:0000:00:0000:00:00
KE7DJD2026-09-01 00:43:3443.83378-115.99049313°11km/h31173m-45.4m/s-42.7°C0.6%0hPa0V00:00:0000:00:0000:00:00
KE7DJD2026-09-01 00:43:1343.83344-115.98970273°11km/h31530m5.6m/s-42.2°C0.5%0hPa0V00:00:0000:00:0000:00:00
KE7DJD2026-09-01 00:42:5243.83297-115.98952134°9km/h31397m5.6m/s-42.5°C0.5%0hPa0V00:00:0000:00:0000:00:00
KE7DJD2026-09-01 00:42:3143.83275-115.98843254°46km/h31264m4.8m/s-42.6°C0.5%0hPa0V00:00:0000:00:0000:00:00
KE7DJD2026-09-01 00:42:1143.83286-115.98751169°5km/h31138m7.4m/s-43.6°C0.6%0hPa0V00:00:0000:00:0000:00:00
KE7DJD2026-09-01 00:41:5043.83286-115.98801100°16km/h31001m6.8m/s-43.5°C0.6%0hPa0V00:00:0000:00:0000:00:00
KE7DJD2026-09-01 00:41:2943.83282-115.98844173°4km/h30866m7.4m/s-43.4°C0.6%0hPa0V00:00:0000:00:0000:00:00
KE7DJD2026-09-01 00:41:0843.83280-115.98897192°11km/h30733m8.3m/s-42.8°C0.6%0hPa0V00:00:0000:00:0000:00:00
KE7DJD2026-09-01 00:40:4843.83297-115.98911343°2km/h30609m5.8m/s-43.1°C0.6%0hPa0V00:00:0000:00:0000:00:00
KE7DJD2026-09-01 00:40:2743.83347-115.98932115°9km/h30480m5.4m/s-43.1°C0.6%0hPa0V00:00:0000:00:0000:00:00
KE7DJD2026-09-01 00:40:0643.83440-115.98980121°5km/h30350m6.5m/s-43.9°C0.6%0hPa0V00:00:0000:00:0000:00:00
KE7DJD2026-09-01 00:39:4643.83497-115.99083176°18km/h30224m4.3m/s-42.9°C0.6%0hPa0V00:00:0000:00:0000:00:00
KE7DJD2026-09-01 00:39:2443.83554-115.99249109°31km/h30101m5.0m/s-42.8°C0.6%0hPa0V00:00:0000:00:0000:00:00
KE7DJD2026-09-01 00:39:0343.83640-115.99364131°20km/h29971m7.3m/s-42.3°C0.6%0hPa0V00:00:0000:00:0000:00:00
KE7DJD2026-09-01 00:38:4343.83700-115.99399176°20km/h29847m7.8m/s-41.9°C0.6%0hPa0V00:00:0000:00:0000:00:00
KE7DJD2026-09-01 00:38:2243.83780-115.99407189°5km/h29715m6.5m/s-41.5°C0.6%0hPa0V00:00:0000:00:0000:00:00
KE7DJD2026-09-01 00:38:0143.83858-115.99354213°24km/h29585m5.9m/s-42.0°C0.5%0hPa0V00:00:0000:00:0000:00:00
KE7DJD2026-09-01 00:37:4143.83937-115.99272313°24km/h29463m6.0m/s-42.9°C0.6%0hPa0V00:00:0000:00:0000:00:00
KE7DJD2026-09-01 00:37:2043.83990-115.99281178°24km/h29335m5.1m/s-43.6°C0.6%0hPa0V00:00:0000:00:0000:00:00
KE7DJD2026-09-01 00:37:0043.84036-115.9941487°37km/h29213m4.7m/s-43.4°C0.6%0hPa0V00:00:0000:00:0000:00:00
KE7DJD2026-09-01 00:36:4043.84092-115.99641109°31km/h29093m4.7m/s-44.1°C0.6%0hPa0V00:00:0000:00:0000:00:00
KE7DJD2026-09-01 00:36:2043.84083-115.9985990°33km/h28976m4.7m/s-44.3°C0.6%0hPa0V00:00:0000:00:0000:00:00
KE7DJD2026-09-01 00:35:5943.84063-115.99962331°31km/h28858m4.8m/s-45.7°C0.7%0hPa0V00:00:0000:00:0000:00:00
KE7DJD2026-09-01 00:35:3843.83982-115.99989357°9km/h28739m7.1m/s-45.6°C0.7%0hPa0V00:00:0000:00:0000:00:00
KE7DJD2026-09-01 00:35:1843.83971-115.99938170°15km/h28626m7.0m/s-45.7°C0.7%0hPa0V00:00:0000:00:0000:00:00
KE7DJD2026-09-01 00:34:5743.83984-115.99947197°22km/h28507m6.1m/s-45.3°C0.7%0hPa0V00:00:0000:00:0000:00:00
KE7DJD2026-09-01 00:34:3643.83989-115.99975111°4km/h28387m6.5m/s-44.6°C0.7%0hPa0V00:00:0000:00:0000:00:00
KE7DJD2026-09-01 00:34:1543.83991-116.00008109°13km/h28266m5.0m/s-44.2°C0.6%0hPa0V00:00:0000:00:0000:00:00
KE7DJD2026-09-01 00:33:5543.83957-116.00001315°20km/h28153m5.3m/s-45.3°C0.7%0hPa0V00:00:0000:00:0000:00:00
KE7DJD2026-09-01 00:33:3443.83918-115.99937294°20km/h28032m4.8m/s-45.1°C0.7%0hPa0V00:00:0000:00:0000:00:00
KE7DJD2026-09-01 00:33:1343.83930-115.99832235°13km/h27911m6.0m/s-45.3°C0.7%0hPa0V00:00:0000:00:0000:00:00
KE7DJD2026-09-01 00:32:5243.83944-115.99766134°13km/h27785m6.3m/s-45.3°C0.7%0hPa0V00:00:0000:00:0000:00:00
KE7DJD2026-09-01 00:32:3243.83905-115.9975427°22km/h27667m6.6m/s-45.2°C0.7%0hPa0V00:00:0000:00:0000:00:00
KE7DJD2026-09-01 00:32:1243.83866-115.99767300°13km/h27548m7.1m/s-46.6°C0.7%0hPa0V00:00:0000:00:0000:00:00
KE7DJD2026-09-01 00:31:5143.83795-115.9977521°24km/h27425m7.4m/s-47.7°C0.8%0hPa0V00:00:0000:00:0000:00:00
KE7DJD2026-09-01 00:31:3043.83640-115.99830353°16km/h27298m6.7m/s-47.7°C0.8%0hPa0V00:00:0000:00:0000:00:00
KE7DJD2026-09-01 00:31:1043.83548-115.99840342°37km/h27178m4.9m/s-49.3°C0.8%0hPa0V00:00:0000:00:0000:00:00
KE7DJD2026-09-01 00:30:4943.83443-115.99809356°22km/h27053m7.1m/s-49.4°C0.9%0hPa0V00:00:0000:00:0000:00:00
KE7DJD2026-09-01 00:30:2843.83400-115.9979911°16km/h26924m7.5m/s-49.4°C0.9%0hPa0V00:00:0000:00:0000:00:00
KE7DJD2026-09-01 00:30:0843.83347-115.9980868°9km/h26802m5.0m/s-49.3°C0.9%0hPa0V00:00:0000:00:0000:00:00
KE7DJD2026-09-01 00:29:4843.83261-115.9985956°7km/h26682m7.8m/s-49.2°C0.9%0hPa0V00:00:0000:00:0000:00:00
KE7DJD2026-09-01 00:29:2843.83198-115.9991835°26km/h26561m5.7m/s-49.6°C0.9%0hPa0V00:00:0000:00:0000:00:00
KE7DJD2026-09-01 00:29:0743.83136-115.9993252°15km/h26432m6.4m/s-49.4°C0.9%0hPa0V00:00:0000:00:0000:00:00
KE7DJD2026-09-01 00:28:4743.83123-115.99920173°7km/h26312m7.0m/s-49.4°C0.9%0hPa0V00:00:0000:00:0000:00:00
KE7DJD2026-09-01 00:28:2643.83150-115.99895167°22km/h26185m5.9m/s-50.0°C0.9%0hPa0V00:00:0000:00:0000:00:00
KE7DJD2026-09-01 00:28:0543.83175-115.99907127°13km/h26062m5.9m/s-50.7°C0.9%0hPa0V00:00:0000:00:0000:00:00
KE7DJD2026-09-01 00:27:4543.83212-115.99949171°20km/h25939m5.8m/s-50.4°C0.9%0hPa0V00:00:0000:00:0000:00:00
KE7DJD2026-09-01 00:27:2443.83274-115.99979140°18km/h25822m6.5m/s-50.3°C1.0%0hPa0V00:00:0000:00:0000:00:00
KE7DJD2026-09-01 00:27:0343.83329-116.00023118°16km/h25700m6.8m/s-50.0°C0.9%0hPa0V00:00:0000:00:0000:00:00
KE7DJD2026-09-01 00:26:4243.83360-116.00124165°13km/h25574m4.0m/s-50.3°C0.9%0hPa0V00:00:0000:00:0000:00:00
KE7DJD2026-09-01 00:26:2143.83373-116.00157186°13km/h25451m6.5m/s-50.3°C1.0%0hPa0V00:00:0000:00:0000:00:00
KE7DJD2026-09-01 00:26:0043.83449-116.00152202°18km/h25327m7.1m/s-50.1°C1.0%0hPa0V00:00:0000:00:0000:00:00
KE7DJD2026-09-01 00:25:4043.83527-116.00199133°29km/h25211m4.4m/s-50.0°C0.9%0hPa0V00:00:0000:00:0000:00:00
KE7DJD2026-09-01 00:25:1943.83544-116.00303121°24km/h25085m5.0m/s-50.6°C0.9%0hPa0V00:00:0000:00:0000:00:00
KE7DJD2026-09-01 00:24:5943.83511-116.0038461°13km/h24965m5.1m/s-50.8°C1.0%0hPa0V00:00:0000:00:0000:00:00
KE7DJD2026-09-01 00:24:3943.83504-116.00433100°16km/h24845m5.3m/s-50.8°C1.0%0hPa0V00:00:0000:00:0000:00:00
KE7DJD2026-09-01 00:24:1843.83509-116.0050697°20km/h24719m4.6m/s-50.6°C1.0%0hPa0V00:00:0000:00:0000:00:00
KE7DJD2026-09-01 00:23:5843.83475-116.0060658°29km/h24599m6.6m/s-50.4°C1.0%0hPa0V00:00:0000:00:0000:00:00
KE7DJD2026-09-01 00:23:3943.83414-116.0072736°16km/h24480m6.4m/s-50.4°C1.0%0hPa0V00:00:0000:00:0000:00:00
KE7DJD2026-09-01 00:23:1743.83336-116.0083644°24km/h24359m6.3m/s-50.8°C1.0%0hPa0V00:00:0000:00:0000:00:00
KE7DJD2026-09-01 00:22:5743.83246-116.0089443°16km/h24236m5.4m/s-51.2°C1.0%0hPa0V00:00:0000:00:0000:00:00
KE7DJD2026-09-01 00:22:3543.83138-116.0093531°22km/h24114m5.7m/s-51.7°C1.1%0hPa0V00:00:0000:00:0000:00:00
KE7DJD2026-09-01 00:22:1543.83007-116.00896343°31km/h23999m6.9m/s-51.5°C1.1%0hPa0V00:00:0000:00:0000:00:00
KE7DJD2026-09-01 00:21:5443.82908-116.00829296°20km/h23891m5.8m/s-51.3°C1.0%0hPa0V00:00:0000:00:0000:00:00
KE7DJD2026-09-01 00:21:3343.82841-116.00791334°16km/h23778m4.7m/s-51.0°C1.0%0hPa0V00:00:0000:00:0000:00:00
KE7DJD2026-09-01 00:20:5243.82721-116.0080422°20km/h23550m4.5m/s-50.9°C1.1%0hPa0V00:00:0000:00:0000:00:00
KE7DJD2026-09-01 00:20:3143.82677-116.00772304°9km/h23435m6.0m/s-50.8°C1.0%0hPa0V00:00:0000:00:0000:00:00
KE7DJD2026-09-01 00:20:1143.82642-116.00765258°5km/h23324m4.8m/s-50.8°C1.0%0hPa0V00:00:0000:00:0000:00:00
KE7DJD2026-09-01 00:19:5043.82549-116.00782350°16km/h23206m5.8m/s-51.2°C1.1%0hPa0V00:00:0000:00:0000:00:00
KE7DJD2026-09-01 00:19:2943.82434-116.0074826km/h23090m5.3m/s-50.5°C1.0%0hPa0V00:00:0000:00:0000:00:00
KE7DJD2026-09-01 00:19:0943.82332-116.00661320°18km/h22982m6.0m/s-50.1°C1.0%0hPa0V00:00:0000:00:0000:00:00
KE7DJD2026-09-01 00:18:4943.82250-116.00540321°26km/h22872m4.8m/s-49.9°C1.1%0hPa0V00:00:0000:00:0000:00:00
KE7DJD2026-09-01 00:18:2843.82206-116.00367247°20km/h22758m5.5m/s-49.3°C1.0%0hPa0V00:00:0000:00:0000:00:00
KE7DJD2026-09-01 00:18:0743.82204-116.00217203°9km/h22647m6.3m/s-49.4°C1.0%0hPa0V00:00:0000:00:0000:00:00
KE7DJD2026-09-01 00:17:4643.82232-116.00189181°9km/h22533m6.0m/s-50.2°C1.0%0hPa0V00:00:0000:00:0000:00:00
KE7DJD2026-09-01 00:17:0443.82270-116.0026080°15km/h22305m5.4m/s-50.5°C1.0%0hPa0V00:00:0000:00:0000:00:00
KE7DJD2026-09-01 00:16:4443.82247-116.0038843°15km/h22190m5.4m/s-50.6°C1.0%0hPa0V00:00:0000:00:0000:00:00
KE7DJD2026-09-01 00:16:2243.82133-116.0057431°27km/h22075m5.3m/s-50.8°C1.1%0hPa0V00:00:0000:00:0000:00:00
KE7DJD2026-09-01 00:16:0243.82031-116.0069915°16km/h21964m5.5m/s-51.0°C1.1%0hPa0V00:00:0000:00:0000:00:00
KE7DJD2026-09-01 00:15:4243.81973-116.0074816°11km/h21854m4.8m/s-50.9°C1.1%0hPa0V00:00:0000:00:0000:00:00
KE7DJD2026-09-01 00:15:2143.81971-116.00818130°24km/h21743m4.8m/s-52.7°C1.1%0hPa0V00:00:0000:00:0000:00:00
KE7DJD2026-09-01 00:15:0243.81967-116.0090352°5km/h21639m5.9m/s-54.1°C1.2%0hPa0V00:00:0000:00:0000:00:00
KE7DJD2026-09-01 00:14:4043.81992-116.00947156°13km/h21528m6.1m/s-54.3°C1.3%0hPa0V00:00:0000:00:0000:00:00
KE7DJD2026-09-01 00:14:1943.82052-116.01080114°31km/h21416m5.6m/s-54.0°C1.3%0hPa0V00:00:0000:00:0000:00:00
KE7DJD2026-09-01 00:13:5943.82066-116.0126655°26km/h21306m4.7m/s-53.9°C1.3%0hPa0V00:00:0000:00:0000:00:00
KE7DJD2026-09-01 00:13:3843.82043-116.0141652°18km/h21202m5.4m/s-54.1°C1.2%0hPa0V00:00:0000:00:0000:00:00
KE7DJD2026-09-01 00:13:1743.81997-116.0152168°22km/h21095m5.5m/s-54.9°C1.3%0hPa0V00:00:0000:00:0000:00:00
KE7DJD2026-09-01 00:12:5643.81932-116.0162032°16km/h20987m5.1m/s-55.3°C1.3%0hPa0V00:00:0000:00:0000:00:00
KE7DJD2026-09-01 00:12:3543.81900-116.0175282°18km/h20877m3.9m/s-56.3°C1.3%0hPa0V00:00:0000:00:0000:00:00
KE7DJD2026-09-01 00:12:1443.81837-116.0197960°42km/h20768m5.5m/s-57.7°C1.5%0hPa0V00:00:0000:00:0000:00:00
KE7DJD2026-09-01 00:11:5443.81742-116.0212937°35km/h20661m6.7m/s-57.8°C1.5%0hPa0V00:00:0000:00:0000:00:00
KE7DJD2026-09-01 00:11:3443.81592-116.0221133km/h20547m4.6m/s-57.4°C1.4%0hPa0V00:00:0000:00:0000:00:00
KE7DJD2026-09-01 00:11:1343.81383-116.02239348°44km/h20441m4.4m/s-57.9°C1.6%0hPa0V00:00:0000:00:0000:00:00
KE7DJD2026-09-01 00:10:5243.81205-116.02205361°29km/h20336m5.0m/s-57.3°C1.5%0hPa0V00:00:0000:00:0000:00:00
KE7DJD2026-09-01 00:10:3343.81075-116.0220821°15km/h20231m5.4m/s-56.9°C1.5%0hPa0V00:00:0000:00:0000:00:00
KE7DJD2026-09-01 00:10:1243.80987-116.0219115km/h20124m4.9m/s-56.8°C1.4%0hPa0V00:00:0000:00:0000:00:00
KE7DJD2026-09-01 00:09:5143.80954-116.02179105°5km/h20022m5.1m/s-57.2°C1.5%0hPa0V00:00:0000:00:0000:00:00
KE7DJD2026-09-01 00:09:3143.80929-116.0223436°15km/h19923m5.3m/s-56.8°C1.5%0hPa0V00:00:0000:00:0000:00:00
KE7DJD2026-09-01 00:09:1043.80854-116.0232150°26km/h19822m5.8m/s-56.4°C1.5%0hPa0V00:00:0000:00:0000:00:00
KE7DJD2026-09-01 00:08:5043.80763-116.0243167°27km/h19724m4.2m/s-56.2°C1.4%0hPa0V00:00:0000:00:0000:00:00
KE7DJD2026-09-01 00:08:2943.80627-116.0263734°40km/h19617m4.8m/s-55.9°C1.4%0hPa0V00:00:0000:00:0000:00:00
KE7DJD2026-09-01 00:08:0843.80491-116.0278932°40km/h19513m5.9m/s-55.7°C1.4%0hPa0V00:00:0000:00:0000:00:00
KE7DJD2026-09-01 00:07:4843.80353-116.0285912°22km/h19414m3.6m/s-56.3°C1.5%0hPa0V00:00:0000:00:0000:00:00
KE7DJD2026-09-01 00:07:2843.80241-116.0294216°13km/h19307m5.8m/s-55.9°C1.4%0hPa0V00:00:0000:00:0000:00:00
KE7DJD2026-09-01 00:07:0743.80188-116.03060104°16km/h19202m5.9m/s-55.4°C1.4%0hPa0V00:00:0000:00:0000:00:00
KE7DJD2026-09-01 00:06:4743.80188-116.0320669°20km/h19095m6.5m/s-55.4°C1.4%0hPa0V00:00:0000:00:0000:00:00
KE7DJD2026-09-01 00:06:0643.80158-116.0351293°26km/h18873m6.3m/s-54.7°C1.4%0hPa0V00:00:0000:00:0000:00:00
KE7DJD2026-09-01 00:05:4743.80125-116.0368359°26km/h18768m5.2m/s-55.1°C1.4%0hPa0V00:00:0000:00:0000:00:00
KE7DJD2026-09-01 00:05:2543.80065-116.0385172°24km/h18663m5.6m/s-56.0°C1.5%0hPa0V00:00:0000:00:0000:00:00
KE7DJD2026-09-01 00:05:0343.79990-116.0408660°44km/h18562m3.6m/s-55.9°C1.4%0hPa0V00:00:0000:00:0000:00:00
KE7DJD2026-09-01 00:04:4343.79881-116.0427845°24km/h18463m3.8m/s-55.6°C1.4%0hPa0V00:00:0000:00:0000:00:00
KE7DJD2026-09-01 00:04:2343.79772-116.0437626km/h18368m4.5m/s-55.5°C1.5%0hPa0V00:00:0000:00:0000:00:00
KE7DJD2026-09-01 00:04:0243.79686-116.0445856°16km/h18271m4.3m/s-55.5°C1.4%0hPa0V00:00:0000:00:0000:00:00
KE7DJD2026-09-01 00:03:4643.79620-116.0459969°26km/h18175m5.9m/s-55.5°C1.4%0hPa0V00:00:0000:00:0000:00:00
KE7DJD2026-09-01 00:03:3543.79561-116.0483268°37km/h18073m4.7m/s-56.1°C1.5%0hPa0V00:00:0000:00:0000:00:00
KE7DJD2026-09-01 00:03:2143.79458-116.0511466°57km/h17980m3.6m/s-56.3°C1.5%0hPa0V00:00:0000:00:0000:00:00
KE7DJD2026-09-01 00:02:5343.79293-116.0542857°57km/h17882m6.1m/s-56.1°C1.5%0hPa0V00:00:0000:00:0000:00:00
KE7DJD2026-09-01 00:02:2543.79100-116.0571542°57km/h17786m5.7m/s-56.1°C1.6%0hPa0V00:00:0000:00:0000:00:00
KE7DJD2026-09-01 00:01:5043.78706-116.0614342°37km/h17575m3.5m/s-56.1°C1.6%0hPa0V00:00:0000:00:0000:00:00
KE7DJD2026-09-01 00:01:2543.78614-116.0632062°33km/h17475m4.2m/s-56.2°C1.6%0hPa0V00:00:0000:00:0000:00:00
KE7DJD2026-09-01 00:00:3943.78461-116.0669469°35km/h17286m4.1m/s-56.5°C1.6%0hPa0V00:00:0000:00:0000:00:00
KE7DJD2026-09-01 00:00:2343.78371-116.0689857°37km/h17192m3.9m/s-56.9°C1.7%0hPa0V00:00:0000:00:0000:00:00
KE7DJD2026-08-31 23:59:5643.78281-116.0714457°42km/h17097m5.3m/s-57.0°C1.7%0hPa0V00:00:0000:00:0000:00:00
KE7DJD2026-08-31 23:59:3643.78136-116.0737554°44km/h17003m3.9m/s-56.8°C1.7%0hPa0V00:00:0000:00:0000:00:00
KE7DJD2026-08-31 23:59:1543.77998-116.0761746°38km/h16905m4.3m/s-56.8°C1.7%0hPa0V00:00:0000:00:0000:00:00
KE7DJD2026-08-31 23:58:5543.77833-116.0786452°49km/h16813m4.3m/s-56.7°C1.7%0hPa0V00:00:0000:00:0000:00:00
KE7DJD2026-08-31 23:58:3443.77661-116.0816562°60km/h16716m4.9m/s-57.3°C1.8%0hPa0V00:00:0000:00:0000:00:00
KE7DJD2026-08-31 23:58:1443.77487-116.0844639°53km/h16622m5.6m/s-57.2°C1.8%0hPa0V00:00:0000:00:0000:00:00
KE7DJD2026-08-31 23:57:5443.77275-116.0868133°51km/h16529m5.2m/s-57.2°C1.8%0hPa0V00:00:0000:00:0000:00:00
KE7DJD2026-08-31 23:57:3343.77071-116.0886443°40km/h16427m3.5m/s-57.0°C1.9%0hPa0V00:00:0000:00:0000:00:00
KE7DJD2026-08-31 23:57:1243.76903-116.0908353°44km/h16331m4.2m/s-57.2°C1.9%0hPa0V00:00:0000:00:0000:00:00
KE7DJD2026-08-31 23:56:5243.76746-116.0930247°46km/h16237m4.0m/s-57.1°C1.9%0hPa0V00:00:0000:00:0000:00:00
KE7DJD2026-08-31 23:56:3143.76586-116.0953059°42km/h16144m5.0m/s-56.9°C1.9%0hPa0V00:00:0000:00:0000:00:00
KE7DJD2026-08-31 23:56:1143.76446-116.0981252°53km/h16053m3.1m/s-56.9°C1.9%0hPa0V00:00:0000:00:0000:00:00
KE7DJD2026-08-31 23:55:5143.76288-116.1015353°53km/h15959m4.4m/s-57.3°C2.0%0hPa0V00:00:0000:00:0000:00:00
KE7DJD2026-08-31 23:55:3143.76086-116.1046847°58km/h15864m3.6m/s-57.2°C2.0%0hPa0V00:00:0000:00:0000:00:00
KE7DJD2026-08-31 23:55:1043.75877-116.1072343°58km/h15771m6.4m/s-57.1°C2.0%0hPa0V00:00:0000:00:0000:00:00
KE7DJD2026-08-31 23:54:5043.75682-116.1099348°58km/h15673m5.7m/s-56.9°C2.0%0hPa0V00:00:0000:00:0000:00:00
KE7DJD2026-08-31 23:54:2943.75507-116.1127547°53km/h15576m5.4m/s-56.7°C2.0%0hPa0V00:00:0000:00:0000:00:00
KE7DJD2026-08-31 23:54:0843.75330-116.1152244°46km/h15480m4.6m/s-57.0°C2.0%0hPa0V00:00:0000:00:0000:00:00
KE7DJD2026-08-31 23:53:4943.75175-116.1175453°46km/h15384m3.1m/s-56.8°C2.1%0hPa0V00:00:0000:00:0000:00:00
KE7DJD2026-08-31 23:53:2943.75021-116.1200054°46km/h15292m4.2m/s-57.0°C2.1%0hPa0V00:00:0000:00:0000:00:00
KE7DJD2026-08-31 23:53:0943.74875-116.1225760°51km/h15203m5.9m/s-57.5°C2.2%0hPa0V00:00:0000:00:0000:00:00
KE7DJD2026-08-31 23:52:4843.74674-116.1253643°57km/h15114m5.3m/s-57.9°C2.5%0hPa0V00:00:0000:00:0000:00:00
KE7DJD2026-08-31 23:52:2843.74452-116.1278738°57km/h15021m4.5m/s-58.3°C2.5%0hPa0V00:00:0000:00:0000:00:00
KE7DJD2026-08-31 23:52:0843.74264-116.1301853°44km/h14931m5.5m/s-58.2°C2.7%0hPa0V00:00:0000:00:0000:00:00
KE7DJD2026-08-31 23:51:4743.74089-116.1327254°55km/h14839m5.1m/s-57.9°C2.7%0hPa0V00:00:0000:00:0000:00:00
KE7DJD2026-08-31 23:51:2543.73885-116.1353144°53km/h14744m5.0m/s-57.8°C2.8%0hPa0V00:00:0000:00:0000:00:00
KE7DJD2026-08-31 23:51:0543.73684-116.1375030°42km/h14651m4.1m/s-57.6°C2.8%0hPa0V00:00:0000:00:0000:00:00
KE7DJD2026-08-31 23:50:4443.73527-116.1396447°49km/h14557m3.5m/s-57.6°C3.0%0hPa0V00:00:0000:00:0000:00:00
KE7DJD2026-08-31 23:50:3443.73353-116.1423943°55km/h14461m5.6m/s-56.9°C3.2%0hPa0V00:00:0000:00:0000:00:00
KE7DJD2026-08-31 23:50:0243.73170-116.1451949°55km/h14366m4.9m/s-57.2°C3.7%0hPa0V00:00:0000:00:0000:00:00
KE7DJD2026-08-31 23:49:4243.72970-116.1477539°57km/h14276m4.8m/s-57.6°C4.1%0hPa0V00:00:0000:00:0000:00:00
KE7DJD2026-08-31 23:49:2143.72756-116.1507649°60km/h14184m4.6m/s-57.9°C4.1%0hPa0V00:00:0000:00:0000:00:00
KE7DJD2026-08-31 23:49:0143.72516-116.1540843°73km/h14095m4.3m/s-58.2°C4.4%0hPa0V00:00:0000:00:0000:00:00
KE7DJD2026-08-31 23:48:4043.72250-116.1569236°64km/h13999m5.0m/s-58.1°C4.6%0hPa0V00:00:0000:00:0000:00:00
KE7DJD2026-08-31 23:48:2043.71983-116.1589835°55km/h13904m5.2m/s-57.7°C4.6%0hPa0V00:00:0000:00:0000:00:00
KE7DJD2026-08-31 23:48:0043.71758-116.1606731°49km/h13814m3.2m/s-57.5°C4.7%0hPa0V00:00:0000:00:0000:00:00
KE7DJD2026-08-31 23:47:3943.71520-116.1622934°46km/h13721m4.3m/s-57.3°C4.7%0hPa0V00:00:0000:00:0000:00:00
KE7DJD2026-08-31 23:47:1843.71299-116.1637633°49km/h13633m3.2m/s-56.7°C4.6%0hPa0V00:00:0000:00:0000:00:00
KE7DJD2026-08-31 23:46:5843.71055-116.1651829°55km/h13544m4.4m/s-56.2°C4.7%0hPa0V00:00:0000:00:0000:00:00
KE7DJD2026-08-31 23:46:3943.70787-116.1668530°58km/h13459m4.5m/s-56.1°C4.7%0hPa0V00:00:0000:00:0000:00:00
KE7DJD2026-08-31 23:46:1843.70538-116.1685643°44km/h13363m4.4m/s-55.9°C5.4%0hPa0V00:00:0000:00:0000:00:00
KE7DJD2026-08-31 23:45:5643.70310-116.1698418°42km/h13237m3.8m/s-55.9°C5.9%0hPa0V00:00:0000:00:0000:00:00
KE7DJD2026-08-31 23:45:3543.70096-116.1711224°38km/h13144m4.1m/s-56.1°C6.5%0hPa0V00:00:0000:00:0000:00:00
KE7DJD2026-08-31 23:45:1743.69908-116.1726819°38km/h13054m5.8m/s-56.5°C6.5%0hPa0V00:00:0000:00:0000:00:00
KE7DJD2026-08-31 23:44:5443.69696-116.1735810°42km/h12950m5.5m/s-56.0°C6.4%0hPa0V00:00:0000:00:0000:00:00
KE7DJD2026-08-31 23:44:3443.69486-116.1742538km/h12855m4.9m/s-56.3°C9.2%0hPa0V00:00:0000:00:0000:00:00
KE7DJD2026-08-31 23:44:1543.69268-116.1749942km/h12766m3.9m/s-56.6°C10.5%0hPa0V00:00:0000:00:0000:00:00
KE7DJD2026-08-31 23:43:5443.69056-116.1752537km/h12678m4.0m/s-56.9°C13.2%0hPa0V00:00:0000:00:0000:00:00
KE7DJD2026-08-31 23:43:3343.68847-116.1758035km/h12588m2.8m/s-57.2°C16.1%0hPa0V00:00:0000:00:0000:00:00
KE7DJD2026-08-31 23:43:1243.68630-116.1761544km/h12498m4.7m/s-57.3°C18.1%0hPa0V00:00:0000:00:0000:00:00
KE7DJD2026-08-31 23:42:5243.68408-116.1762146km/h12411m3.3m/s-57.0°C18.7%0hPa0V00:00:0000:00:0000:00:00
KE7DJD2026-08-31 23:42:3143.68157-116.17600350°42km/h12319m5.7m/s-56.6°C18.3%0hPa0V00:00:0000:00:0000:00:00
KE7DJD2026-08-31 23:42:1143.67927-116.17528347°46km/h12233m4.0m/s-56.1°C18.7%0hPa0V00:00:0000:00:0000:00:00
KE7DJD2026-08-31 23:41:5043.67725-116.17440334°38km/h12142m4.0m/s-56.0°C21.0%0hPa0V00:00:0000:00:0000:00:00
KE7DJD2026-08-31 23:41:3043.67523-116.17343346°42km/h12055m3.6m/s-55.8°C21.3%0hPa0V00:00:0000:00:0000:00:00
KE7DJD2026-08-31 23:41:1143.67316-116.17297354°44km/h11967m4.8m/s-55.3°C22.2%0hPa0V00:00:0000:00:0000:00:00
KE7DJD2026-08-31 23:40:4943.67134-116.17218339°29km/h11869m3.9m/s-54.8°C23.0%0hPa0V00:00:0000:00:0000:00:00
KE7DJD2026-08-31 23:40:2843.66972-116.17118335°37km/h11778m5.5m/s-54.4°C22.9%0hPa0V00:00:0000:00:0000:00:00
KE7DJD2026-08-31 23:40:0843.66798-116.17019337°40km/h11691m3.5m/s-53.9°C23.2%0hPa0V00:00:0000:00:0000:00:00
KE7DJD2026-08-31 23:39:4743.66617-116.16937346°27km/h11599m5.8m/s-53.5°C22.7%0hPa0V00:00:0000:00:0000:00:00
KE7DJD2026-08-31 23:39:2643.66458-116.16866350°33km/h11509m5.2m/s-53.2°C21.7%0hPa0V00:00:0000:00:0000:00:00
KE7DJD2026-08-31 23:39:0743.66313-116.16777326°31km/h11423m3.5m/s-52.6°C21.7%0hPa0V00:00:0000:00:0000:00:00
KE7DJD2026-08-31 23:38:4543.66162-116.16651334°40km/h11334m3.5m/s-52.3°C23.6%0hPa0V00:00:0000:00:0000:00:00
KE7DJD2026-08-31 23:38:2543.66021-116.16482332°27km/h11223m4.2m/s-51.3°C25.7%0hPa0V00:00:0000:00:0000:00:00
KE7DJD2026-08-31 23:38:0443.65916-116.16302306°37km/h11123m3.3m/s-50.8°C28.5%0hPa0V00:00:0000:00:0000:00:00
KE7DJD2026-08-31 23:37:4343.65817-116.16110308°37km/h11034m3.5m/s-50.2°C29.2%0hPa0V00:00:0000:00:0000:00:00
KE7DJD2026-08-31 23:37:2243.65735-116.15932301°20km/h10940m5.4m/s-49.3°C29.3%0hPa0V00:00:0000:00:0000:00:00
KE7DJD2026-08-31 23:37:0243.65666-116.15779296°26km/h10856m3.4m/s-48.8°C30.4%0hPa0V00:00:0000:00:0000:00:00
KE7DJD2026-08-31 23:36:4143.65591-116.15628304°20km/h10769m4.9m/s-48.2°C28.4%0hPa0V00:00:0000:00:0000:00:00
KE7DJD2026-08-31 23:36:2143.65511-116.15504321°24km/h10680m4.8m/s-47.5°C33.1%0hPa0V00:00:0000:00:0000:00:00
KE7DJD2026-08-31 23:36:0143.65406-116.15375307°31km/h10593m4.9m/s-46.8°C38.0%0hPa0V00:00:0000:00:0000:00:00
KE7DJD2026-08-31 23:35:3943.65291-116.15241316°26km/h10500m5.9m/s-46.1°C41.7%0hPa0V00:00:0000:00:0000:00:00
KE7DJD2026-08-31 23:35:1943.65193-116.15111328°31km/h10414m5.0m/s-45.2°C40.4%0hPa0V00:00:0000:00:0000:00:00
KE7DJD2026-08-31 23:34:5843.65095-116.14987319°18km/h10323m3.8m/s-44.7°C28.1%0hPa0V00:00:0000:00:0000:00:00
KE7DJD2026-08-31 23:34:3743.65002-116.14895333°18km/h10231m3.8m/s-43.9°C23.9%0hPa0V00:00:0000:00:0000:00:00
KE7DJD2026-08-31 23:34:1743.64908-116.14833313°22km/h10141m3.6m/s-43.1°C30.4%0hPa0V00:00:0000:00:0000:00:00
KE7DJD2026-08-31 23:33:5743.64816-116.14760346°20km/h10054m4.8m/s-42.6°C51.0%0hPa0V00:00:0000:00:0000:00:00
KE7DJD2026-08-31 23:33:3743.64714-116.14676335°27km/h9969m3.9m/s-41.9°C54.0%0hPa0V00:00:0000:00:0000:00:00
KE7DJD2026-08-31 23:33:1643.64608-116.14578330°27km/h9879m3.6m/s-41.1°C42.1%0hPa0V00:00:0000:00:0000:00:00
KE7DJD2026-08-31 23:32:5543.64490-116.14498331°24km/h9788m4.9m/s-40.4°C32.2%0hPa0V00:00:0000:00:0000:00:00
KE7DJD2026-08-31 23:32:3543.64364-116.14428340°22km/h9700m5.9m/s-39.6°C33.6%0hPa0V00:00:0000:00:0000:00:00
KE7DJD2026-08-31 23:32:1543.64236-116.14347338°31km/h9607m3.5m/s-38.7°C32.7%0hPa0V00:00:0000:00:0000:00:00
KE7DJD2026-08-31 23:31:5443.64097-116.14263348°31km/h9519m4.2m/s-38.1°C28.8%0hPa0V00:00:0000:00:0000:00:00
KE7DJD2026-08-31 23:31:3243.63949-116.14172337°37km/h9427m4.1m/s-37.3°C27.2%0hPa0V00:00:0000:00:0000:00:00
KE7DJD2026-08-31 23:31:1143.63802-116.14104332°27km/h9333m3.6m/s-36.4°C25.5%0hPa0V00:00:0000:00:0000:00:00
KE7DJD2026-08-31 23:30:5143.63663-116.14059358°22km/h9239m4.1m/s-35.7°C29.5%0hPa0V00:00:0000:00:0000:00:00
KE7DJD2026-08-31 23:30:2943.63542-116.1400824km/h9147m3.8m/s-34.9°C32.7%0hPa0V00:00:0000:00:0000:00:00
KE7DJD2026-08-31 23:30:0943.63424-116.13951342°26km/h9048m4.7m/s-34.1°C36.1%0hPa0V00:00:0000:00:0000:00:00
KE7DJD2026-08-31 23:29:5043.63326-116.13897330°29km/h8955m4.2m/s-33.2°C36.8%0hPa0V00:00:0000:00:0000:00:00
KE7DJD2026-08-31 23:29:2843.63220-116.13847334°20km/h8861m4.6m/s-32.3°C34.0%0hPa0V00:00:0000:00:0000:00:00
KE7DJD2026-08-31 23:29:0843.63118-116.13806353°29km/h8769m4.9m/s-31.7°C34.7%0hPa0V00:00:0000:00:0000:00:00
KE7DJD2026-08-31 23:28:4743.63014-116.13759354°22km/h8673m5.3m/s-30.8°C29.9%0hPa0V00:00:0000:00:0000:00:00
KE7DJD2026-08-31 23:28:2743.62911-116.13730353°20km/h8583m3.5m/s-29.9°C29.5%0hPa0V00:00:0000:00:0000:00:00
KE7DJD2026-08-31 23:28:0743.62818-116.13704321°11km/h8497m5.8m/s-29.3°C29.8%0hPa0V00:00:0000:00:0000:00:00
KE7DJD2026-08-31 23:27:4643.62706-116.13683355°22km/h8396m5.0m/s-28.6°C30.7%0hPa0V00:00:0000:00:0000:00:00
KE7DJD2026-08-31 23:27:2543.62597-116.13656329°20km/h8303m5.2m/s-28.1°C35.6%0hPa0V00:00:0000:00:0000:00:00
KE7DJD2026-08-31 23:27:0443.62473-116.1367013km/h8208m3.2m/s-27.3°C32.5%0hPa0V00:00:0000:00:0000:00:00
KE7DJD2026-08-31 23:26:4343.62342-116.1367330°26km/h8114m4.9m/s-26.4°C30.1%0hPa0V00:00:0000:00:0000:00:00
KE7DJD2026-08-31 23:26:2343.62233-116.1370110°27km/h8016m3.5m/s-25.5°C27.4%0hPa0V00:00:0000:00:0000:00:00
KE7DJD2026-08-31 23:26:0243.62113-116.1374614°26km/h7921m3.9m/s-24.7°C25.2%0hPa0V00:00:0000:00:0000:00:00
KE7DJD2026-08-31 23:25:4143.61990-116.1382236°22km/h7831m3.1m/s-24.0°C21.1%0hPa0V00:00:0000:00:0000:00:00
KE7DJD2026-08-31 23:25:2143.61875-116.1392335°24km/h7749m3.1m/s-23.4°C17.7%0hPa0V00:00:0000:00:0000:00:00
KE7DJD2026-08-31 23:25:0043.61747-116.1402335°31km/h7660m3.6m/s-22.6°C16.7%0hPa0V00:00:0000:00:0000:00:00
KE7DJD2026-08-31 23:24:4043.61600-116.1410429°37km/h7576m4.6m/s-22.2°C12.6%0hPa0V00:00:0000:00:0000:00:00
KE7DJD2026-08-31 23:24:2043.61461-116.1419531°26km/h7490m4.0m/s-21.7°C12.5%0hPa0V00:00:0000:00:0000:00:00
KE7DJD2026-08-31 23:23:5943.61293-116.1430632°38km/h7399m4.9m/s-21.2°C13.7%0hPa0V00:00:0000:00:0000:00:00
KE7DJD2026-08-31 23:23:3843.61114-116.1442928°38km/h7306m3.7m/s-20.2°C12.6%0hPa0V00:00:0000:00:0000:00:00
KE7DJD2026-08-31 23:23:1843.60950-116.1454924°35km/h7216m4.9m/s-19.4°C13.1%0hPa0V00:00:0000:00:0000:00:00
KE7DJD2026-08-31 23:22:5743.60766-116.1465829°38km/h7116m3.7m/s-18.5°C17.9%0hPa0V00:00:0000:00:0000:00:00
KE7DJD2026-08-31 23:22:3743.60601-116.1473015°35km/h7022m6.7m/s-17.9°C30.6%0hPa0V00:00:0000:00:0000:00:00
KE7DJD2026-08-31 23:22:1643.60453-116.1484719°33km/h6907m4.5m/s-17.2°C39.4%0hPa0V00:00:0000:00:0000:00:00
KE7DJD2026-08-31 23:21:5643.60338-116.1495930°29km/h6789m4.7m/s-17.7°C63.6%0hPa0V00:00:0000:00:0000:00:00
KE7DJD2026-08-31 23:21:3543.60236-116.1510543°31km/h6690m5.2m/s-16.9°C53.4%0hPa0V00:00:0000:00:0000:00:00
KE7DJD2026-08-31 23:21:1543.60145-116.1525045°27km/h6593m4.2m/s-16.4°C59.3%0hPa0V00:00:0000:00:0000:00:00
KE7DJD2026-08-31 23:20:5443.60042-116.1540455°29km/h6495m4.7m/s-15.8°C60.3%0hPa0V00:00:0000:00:0000:00:00
KE7DJD2026-08-31 23:20:3343.59929-116.1552337°29km/h6396m5.7m/s-15.1°C56.3%0hPa0V00:00:0000:00:0000:00:00
KE7DJD2026-08-31 23:20:1243.59822-116.1564756°26km/h6297m6.2m/s-14.2°C41.2%0hPa0V00:00:0000:00:0000:00:00
KE7DJD2026-08-31 23:19:5143.59717-116.1577449°35km/h6193m5.3m/s-13.3°C26.5%0hPa0V00:00:0000:00:0000:00:00
KE7DJD2026-08-31 23:19:3043.59599-116.1589733°33km/h6076m4.2m/s-12.4°C15.4%0hPa0V00:00:0000:00:0000:00:00
KE7DJD2026-08-31 23:19:0943.59467-116.1596521°33km/h5973m5.5m/s-11.5°C13.9%0hPa0V00:00:0000:00:0000:00:00
KE7DJD2026-08-31 23:18:4843.59338-116.1605619°22km/h5874m4.2m/s-10.8°C15.2%0hPa0V00:00:0000:00:0000:00:00
KE7DJD2026-08-31 23:18:2843.59206-116.1614524°20km/h5776m4.4m/s-10.0°C16.0%0hPa0V00:00:0000:00:0000:00:00
KE7DJD2026-08-31 23:18:0843.59092-116.1620849°16km/h5689m3.6m/s-9.3°C22.2%0hPa0V00:00:0000:00:0000:00:00
KE7DJD2026-08-31 23:17:4843.58979-116.1626924km/h5601m4.8m/s-8.9°C25.0%0hPa0V00:00:0000:00:0000:00:00
KE7DJD2026-08-31 23:17:2743.58867-116.1633815°26km/h5508m4.6m/s-8.2°C24.7%0hPa0V00:00:0000:00:0000:00:00
KE7DJD2026-08-31 23:17:0743.58755-116.1641842°24km/h5420m6.1m/s-7.6°C25.2%0hPa0V00:00:0000:00:0000:00:00
KE7DJD2026-08-31 23:16:4643.58651-116.1649424km/h5331m5.0m/s-7.1°C25.9%0hPa0V00:00:0000:00:0000:00:00
KE7DJD2026-08-31 23:16:2643.58540-116.1659048°20km/h5243m4.8m/s-6.7°C24.9%0hPa0V00:00:0000:00:0000:00:00
KE7DJD2026-08-31 23:16:0643.58403-116.1672434°44km/h5151m4.6m/s-5.8°C22.9%0hPa0V00:00:0000:00:0000:00:00
KE7DJD2026-08-31 23:15:4543.58243-116.1686850°44km/h5061m4.1m/s-5.1°C21.0%0hPa0V00:00:0000:00:0000:00:00
KE7DJD2026-08-31 23:15:2543.58117-116.1704344°33km/h4967m4.5m/s-4.8°C19.0%0hPa0V00:00:0000:00:0000:00:00
KE7DJD2026-08-31 23:15:0443.57980-116.1718850°18km/h4849m6.9m/s-4.1°C28.2%0hPa0V00:00:0000:00:0000:00:00
KE7DJD2026-08-31 23:14:4343.57863-116.1736760°51km/h4725m5.9m/s-3.7°C55.2%0hPa0V00:00:0000:00:0000:00:00
KE7DJD2026-08-31 23:14:2343.57759-116.1759970°35km/h4625m4.3m/s-2.8°C59.5%0hPa0V00:00:0000:00:0000:00:00
KE7DJD2026-08-31 23:14:0343.57660-116.1784866°47km/h4526m3.7m/s-2.0°C62.4%0hPa0V00:00:0000:00:0000:00:00
KE7DJD2026-08-31 23:13:4143.57576-116.1813667°35km/h4429m4.0m/s-1.1°C66.8%0hPa0V00:00:0000:00:0000:00:00
KE7DJD2026-08-31 23:13:0043.57390-116.1865463°33km/h4227m4.1m/s0.7°C50.3%0hPa0V00:00:0000:00:0000:00:00
KE7DJD2026-08-31 23:12:4043.57327-116.1892674°27km/h4138m3.3m/s1.4°C57.0%0hPa0V00:00:0000:00:0000:00:00
KE7DJD2026-08-31 23:12:2043.57235-116.1916849°44km/h4032m5.4m/s2.2°C46.0%0hPa0V00:00:0000:00:0000:00:00
KE7DJD2026-08-31 23:11:5843.57158-116.1941450°38km/h3920m4.2m/s3.2°C46.5%0hPa0V00:00:0000:00:0000:00:00
KE7DJD2026-08-31 23:11:3743.57090-116.1962078°31km/h3807m7.0m/s4.1°C46.9%0hPa0V00:00:0000:00:0000:00:00
KE7DJD2026-08-31 23:11:1643.57060-116.1986767°31km/h3698m7.1m/s5.2°C25.7%0hPa0V00:00:0000:00:0000:00:00
KE7DJD2026-08-31 23:10:5543.57024-116.2005376°27km/h3588m6.9m/s6.0°C17.1%0hPa0V00:00:0000:00:0000:00:00
KE7DJD2026-08-31 23:10:3443.57031-116.2023486°35km/h3491m4.5m/s6.8°C14.6%0hPa0V00:00:0000:00:0000:00:00
KE7DJD2026-08-31 23:10:1343.56993-116.2040798°18km/h3393m4.5m/s7.5°C17.9%0hPa0V00:00:0000:00:0000:00:00
KE7DJD2026-08-31 23:09:5243.56995-116.20583103°31km/h3284m5.2m/s8.2°C13.9%0hPa0V00:00:0000:00:0000:00:00
KE7DJD2026-08-31 23:09:3143.56985-116.2070857°20km/h3179m4.6m/s8.8°C16.5%0hPa0V00:00:0000:00:0000:00:00
KE7DJD2026-08-31 23:09:1143.56959-116.2080068°24km/h3065m5.3m/s10.0°C16.3%0hPa0V00:00:0000:00:0000:00:00
KE7DJD2026-08-31 23:08:5143.56931-116.20934124°9km/h2946m4.7m/s11.0°C16.3%0hPa0V00:00:0000:00:0000:00:00
KE7DJD2026-08-31 23:08:2943.56897-116.2105648°22km/h2850m4.4m/s11.9°C17.1%0hPa0V00:00:0000:00:0000:00:00
KE7DJD2026-08-31 23:08:0843.56875-116.2116739°9km/h2730m5.4m/s12.8°C19.3%0hPa0V00:00:0000:00:0000:00:00
KE7DJD2026-08-31 23:07:4843.56851-116.21279111°22km/h2616m6.1m/s13.9°C19.5%0hPa0V00:00:0000:00:0000:00:00
KE7DJD2026-08-31 23:07:2843.56837-116.2136828°16km/h2502m6.6m/s14.4°C22.3%0hPa0V00:00:0000:00:0000:00:00
KE7DJD2026-08-31 23:07:0743.56820-116.2136155°9km/h2392m4.6m/s15.3°C21.8%0hPa0V00:00:0000:00:0000:00:00
KE7DJD2026-08-31 23:06:4743.56776-116.21336220°9km/h2289m6.3m/s16.3°C20.8%0hPa0V00:00:0000:00:0000:00:00
KE7DJD2026-08-31 23:06:2643.56749-116.21302225°9km/h2183m4.1m/s17.1°C20.4%0hPa0V00:00:0000:00:0000:00:00
KE7DJD2026-08-31 23:06:0643.56729-116.21271262°16km/h2085m5.2m/s17.9°C19.4%0hPa0V00:00:0000:00:0000:00:00
KE7DJD2026-08-31 23:05:4543.56697-116.21171299°20km/h1970m6.9m/s18.9°C18.0%0hPa0V00:00:0000:00:0000:00:00
KE7DJD2026-08-31 23:05:2543.56677-116.21092306°18km/h1844m7.7m/s20.0°C17.1%0hPa0V00:00:0000:00:0000:00:00


GPX KML Map

© wettersonde.net (DO2JMG) - 2026  -  -